GEFSSGP_850_meantemp_174.txt.gz
Temperature
26 25 25 25 28 28 30 32 33 32 32 32 31 31 29 28 26 24 24 23 21 21 21 20 20 20 20 19 19 19 19 19 19 19 19 19 19 18 18 18 18 18 18 18 18 18 18 18 18
26 25 26 28 28 28 30 32 32 32 32 32 31 30 29 27 26 25 24 22 21 21 21 20 20 20 19 19 19 19 19 19 19 19 19 19 18 18 18 18 18 18 18 18 18 18 18 18 18
26 26 28 30 29 30 31 32 33 33 32 32 31 29 28 27 26 24 23 22 21 20 20 21 20 20 19 19 19 19 19 19 19 19 19 18 18 18 18 18 18 18 18 18 18 18 18 18 18
25 28 30 31 31 33 33 33 33 33 32 32 30 29 27 26 25 24 23 22 21 20 21 21 20 20 19 19 19 19 19 18 18 18 18 18 18 18 18 18 18 18 18 18 18 18 18 18 18
27 30 31 31 32 34 34 34 33 33 32 31 29 28 26 26 25 24 23 23 22 20 21 21 20 20 19 19 19 19 19 19 18 18 18 18 18 18 18 18 18 18 18 18 18 18 18 18 18
29 32 31 31 33 34 35 34 33 32 32 31 29 28 26 25 24 24 23 23 22 21 21 21 20 20 20 19 19 19 19 19 19 18 18 18 18 18 18 18 18 18 18 18 18 18 18 18 18
30 32 32 32 33 33 34 34 33 32 32 31 30 28 26 25 24 24 24 23 22 21 21 21 20 20 20 19 19 19 19 19 19 18 18 18 18 18 18 18 18 18 18 18 18 18 18 18 18
31 32 32 33 34 34 34 34 33 32 32 31 30 28 26 25 24 24 24 23 22 21 20 20 20 20 20 19 19 19 19 19 19 18 18 18 18 18 18 18 18 18 18 18 18 18 18 18 18
31 31 32 34 34 34 35 34 33 32 31 31 30 28 26 25 24 24 24 23 22 21 20 20 19 19 19 19 19 19 19 19 19 18 18 18 18 18 18 18 18 18 18 18 18 18 18 18 18
32 31 33 35 36 35 35 34 34 33 32 31 29 27 25 24 24 24 24 23 22 21 21 20 19 19 19 19 19 19 18 19 18 18 18 18 18 18 18 18 18 18 18 18 18 18 18 18 18
33 32 34 36 36 35 35 34 34 33 31 30 28 26 25 25 24 24 24 23 22 21 21 20 20 20 19 19 19 18 18 19 18 18 18 18 18 18 18 18 18 18 18 18 18 18 18 18 18
33 34 34 35 35 35 35 34 34 33 31 30 28 27 26 25 24 24 24 23 22 22 21 21 20 20 20 19 19 19 19 19 18 18 18 18 18 18 18 18 18 18 18 18 18 18 18 18 18
33 34 34 34 34 34 34 34 34 33 32 30 28 27 26 25 25 24 23 23 22 21 21 21 20 20 20 20 19 19 19 19 19 19 18 18 18 18 18 18 18 18 18 18 18 18 18 18 18
34 34 34 34 34 34 34 34 34 33 32 30 28 27 26 26 25 24 23 23 22 21 21 20 20 20 20 20 20 19 19 19 19 19 19 18 18 18 18 18 18 18 18 18 18 18 18 18 18
33 33 33 34 34 34 34 33 34 33 32 30 29 27 27 26 25 24 24 23 22 21 21 20 20 20 20 20 20 19 19 19 19 19 19 19 18 18 18 18 18 18 18 18 18 18 18 18 18
33 32 32 34 34 34 33 32 34 33 32 31 30 28 27 26 25 25 24 23 22 21 21 20 20 20 20 19 20 19 19 19 19 19 19 19 18 18 18 18 18 18 18 18 18 18 18 18 18
31 31 32 33 35 34 33 32 33 33 33 32 31 29 28 27 26 25 23 23 22 21 21 20 20 20 20 19 20 19 19 19 19 19 19 19 19 18 19 18 18 18 18 18 18 18 18 18 18
31 32 32 33 34 34 33 32 33 33 33 32 31 30 28 27 26 25 24 23 22 21 21 20 20 20 20 19 20 19 19 19 19 19 19 19 19 19 19 18 18 18 18 18 18 18 18 18 18
32 32 33 34 35 34 33 32 32 33 33 32 31 30 28 27 26 25 23 23 21 21 20 20 20 19 20 19 19 19 19 19 19 19 19 19 19 19 19 18 18 18 18 18 18 18 18 18 18
32 32 32 34 34 34 33 32 33 33 33 32 31 30 29 28 26 25 23 22 22 21 20 20 20 20 20 20 20 19 19 19 19 19 19 19 19 19 19 19 18 18 18 18 18 18 18 18 18
31 31 32 33 33 33 32 32 32 33 33 32 31 30 30 28 26 24 23 22 22 21 20 20 20 20 20 20 19 19 19 19 19 19 19 19 19 19 18 19 18 18 18 18 18 18 18 18 18
30 32 33 33 32 31 32 30 30 31 31 31 31 31 30 29 27 25 23 22 22 21 20 20 20 20 19 19 19 19 19 19 19 19 19 19 19 19 19 18 18 18 18 18 18 18 18 18 18
31 33 32 32 31 31 32 30 29 29 28 30 31 31 30 29 27 25 24 23 22 21 20 20 20 19 19 19 19 19 19 19 19 19 19 18 18 18 18 18 18 18 18 18 18 18 18 18 18
32 32 31 31 31 29 30 30 29 28 28 29 30 31 30 29 27 26 24 23 22 21 21 20 20 20 19 19 19 19 19 19 19 19 18 18 18 18 18 18 18 18 18 18 18 18 18 18 18
31 30 28 28 28 28 31 30 29 29 29 29 29 30 30 29 27 26 24 23 22 22 21 20 20 20 19 19 19 19 19 19 19 19 19 18 18 18 18 18 18 18 18 18 18 18 18 18 18
30 30 28 27 28 29 30 29 29 30 30 30 29 29 29 28 27 26 24 23 22 22 21 20 20 20 19 19 19 19 19 18 18 19 19 18 18 18 18 18 18 18 18 18 18 18 18 18 18
30 30 31 29 29 29 29 28 29 31 30 30 29 29 29 28 27 26 25 23 23 22 21 20 20 19 19 19 19 19 19 18 18 18 18 18 18 18 18 18 18 18 18 18 18 18 18 18 18
31 30 30 29 27 27 28 27 27 29 29 30 30 29 28 27 26 25 24 24 23 22 21 20 20 20 19 19 19 19 19 18 18 18 18 18 18 18 18 18 18 18 18 18 17 17 17 17 17
30 30 30 29 28 27 27 27 28 28 29 29 29 28 27 27 26 25 24 23 22 21 21 20 20 19 19 19 19 18 18 18 18 18 18 18 18 18 18 18 18 18 18 17 17 17 17 17 17
30 30 30 28 28 28 27 26 28 28 29 29 29 28 27 26 25 24 23 22 22 21 20 20 20 19 19 19 19 18 18 18 18 18 18 18 18 18 18 18 18 17 17 17 17 17 17 17 17

GEFSSGP_850_meantemp_180.txt.gz
Temperature
25 25 24 23 22 21 24 26 27 26 25 26 26 25 24 23 22 20 19 20 20 20 20 20 20 20 20 19 19 19 19 19 19 19 19 19 19 19 18 18 19 19 18 18 18 18 18 18 18
25 25 24 23 22 22 24 26 26 26 25 26 25 25 23 21 20 19 19 20 21 20 20 20 20 20 20 19 19 19 19 19 19 19 19 19 19 18 18 18 19 19 18 18 18 18 18 18 18
25 25 24 21 22 23 25 26 26 27 26 26 26 25 23 21 19 19 20 20 21 20 20 20 20 20 19 19 19 19 19 19 19 19 19 19 19 19 18 18 18 18 18 18 18 18 18 17 17
25 25 24 22 23 25 26 26 27 26 26 26 25 24 23 22 21 21 20 21 21 20 20 20 20 20 19 19 19 19 19 19 19 19 19 19 19 19 18 18 18 18 18 18 18 18 17 17 17
25 25 22 22 24 26 27 27 27 26 26 25 24 23 22 22 22 21 21 21 21 20 20 20 20 20 20 19 19 19 19 19 19 19 19 19 19 18 18 18 18 18 18 18 18 18 17 17 17
25 22 22 23 25 27 27 28 27 26 25 24 23 22 21 21 22 21 21 21 21 21 20 20 20 20 20 19 19 19 19 19 19 19 19 19 19 19 18 18 18 18 18 18 18 18 17 17 17
24 22 23 24 25 27 28 28 26 25 25 24 24 22 21 20 21 21 21 21 21 21 20 20 20 20 20 20 19 19 19 19 19 19 18 19 19 18 18 18 18 18 18 18 18 18 18 17 17
26 22 24 24 26 27 28 28 27 26 25 24 24 22 21 20 21 21 21 21 21 21 21 20 20 20 20 20 19 19 19 19 19 19 18 19 19 19 18 18 18 18 18 18 18 18 18 17 17
27 22 22 25 26 27 28 28 27 27 26 25 24 23 22 21 21 21 20 20 20 20 20 20 20 20 20 20 19 19 19 19 18 18 18 18 19 19 18 18 18 18 18 18 18 18 18 17 17
26 22 24 26 27 27 28 28 27 26 25 24 24 23 22 21 21 21 20 20 20 20 20 20 20 20 20 20 19 19 19 19 19 18 18 18 18 18 18 18 18 18 18 18 18 18 18 18 17
26 25 26 28 29 29 28 28 28 26 24 24 24 23 22 21 21 21 21 21 21 21 20 20 20 20 20 20 19 19 19 19 19 18 18 18 18 18 18 18 18 18 18 18 18 18 18 18 18
27 27 28 29 30 29 29 29 28 27 26 26 26 24 22 22 21 21 21 21 21 21 21 20 20 20 20 20 20 19 19 19 19 19 18 18 18 18 18 18 18 18 18 18 18 18 18 18 18
26 27 29 30 30 30 30 29 28 27 27 26 25 24 23 22 22 22 22 21 21 21 21 20 20 20 20 20 19 19 19 19 19 19 18 18 18 18 18 18 18 18 18 18 18 18 18 18 18
27 27 28 29 30 30 29 28 27 26 26 25 24 23 23 23 22 22 21 21 21 21 21 20 20 20 20 20 19 19 19 19 19 19 18 18 18 18 18 18 18 18 18 18 18 18 18 18 18
28 26 26 28 29 30 29 27 27 26 25 24 24 23 23 23 23 22 22 22 21 21 21 20 20 20 20 20 19 19 19 19 19 19 19 18 18 18 18 18 18 18 18 18 18 18 18 18 18
26 26 25 27 28 29 28 26 26 26 25 24 24 23 23 23 23 23 23 22 22 21 21 20 20 20 20 20 19 19 19 19 19 19 19 19 18 18 18 18 18 18 18 18 18 18 18 18 18
24 24 25 26 28 28 27 26 26 26 25 24 24 23 23 23 23 23 23 22 22 21 21 21 20 20 20 20 19 19 19 19 19 19 19 19 19 18 18 18 18 18 18 18 18 18 18 18 18
23 24 25 26 28 28 27 26 26 26 25 24 24 24 23 23 23 23 23 22 22 21 21 21 20 20 20 20 19 19 19 19 19 19 19 19 19 19 18 18 18 18 18 18 18 18 18 18 18
24 25 25 26 28 27 26 25 25 25 25 24 24 24 23 23 23 23 23 22 22 21 21 20 20 20 20 20 19 19 19 19 19 19 19 19 19 19 18 18 18 18 18 18 18 18 18 18 18
25 24 24 25 27 27 25 25 25 25 25 25 24 24 23 23 23 22 22 22 22 21 21 20 20 20 20 20 20 19 19 19 19 19 19 19 19 19 19 18 18 18 18 18 18 18 18 18 18
24 24 24 25 26 27 26 25 24 24 25 25 24 24 23 23 23 22 22 22 22 22 21 21 20 20 20 20 20 19 19 19 19 19 19 19 19 19 19 19 18 18 18 18 18 18 18 18 18
23 25 26 26 25 24 25 23 24 23 24 24 24 24 23 23 23 23 22 22 22 22 22 21 20 20 20 20 20 19 19 19 19 19 19 19 19 19 19 19 18 18 18 18 18 18 18 18 18
24 26 26 26 25 24 24 23 22 22 23 23 23 24 24 23 23 23 23 23 22 22 21 21 20 20 20 20 20 19 19 19 19 19 19 19 18 19 19 18 18 18 18 18 18 18 18 18 18
26 26 25 23 21 22 23 23 22 21 22 23 23 24 24 23 23 23 23 22 22 22 21 21 20 20 20 19 19 19 19 19 19 19 19 19 18 18 18 18 18 18 18 18 18 18 18 18 18
26 23 21 22 20 21 22 23 21 22 23 23 23 24 24 23 23 22 22 22 22 21 21 21 20 20 20 19 19 19 19 19 19 19 19 19 19 18 18 18 18 18 18 18 18 18 18 18 18
24 21 20 21 21 21 22 22 21 22 23 24 24 24 24 23 23 22 22 22 22 21 21 20 20 20 20 19 19 19 19 19 19 19 19 19 19 19 18 18 18 18 18 18 18 18 18 18 17
25 22 21 20 21 21 21 22 22 23 23 22 23 23 23 23 23 23 22 22 22 21 21 21 20 20 20 19 19 19 19 18 18 18 18 18 18 18 18 18 18 18 18 18 18 18 18 17 17
24 23 20 20 20 21 21 21 21 22 22 22 21 22 23 23 22 22 22 22 22 22 21 21 20 20 20 19 19 19 19 18 18 18 18 18 18 18 18 18 18 18 18 18 17 17 18 17 17
25 23 20 18 19 20 20 20 22 21 21 21 21 22 22 22 22 22 22 22 22 21 21 20 20 20 20 19 19 19 19 18 18 18 18 18 18 18 18 18 18 18 18 18 17 17 17 17 17
24 23 20 20 19 18 19 20 22 21 20 21 21 22 22 22 22 22 21 21 21 21 20 20 20 20 19 19 19 19 19 18 18 18 18 18 18 18 18 18 17 17 18 17 18 17 17 17 17

GEFSSGP_850_meantemp_186.txt.gz
Temperature
24 24 23 23 21 20 22 23 24 23 23 23 23 22 21 20 20 19 19 19 19 19 19 19 19 19 19 19 19 19 19 19 19 19 19 19 19 18 18 18 18 18 18 18 18 18 18 18 18
24 24 23 23 21 21 23 23 23 23 23 23 23 21 20 19 18 19 19 19 19 19 19 19 19 19 19 19 19 19 19 19 19 19 19 19 18 18 18 18 18 18 18 18 18 18 18 18 18
24 24 23 20 21 22 23 24 23 23 24 23 22 21 20 18 19 19 20 19 19 19 19 19 19 19 19 19 19 19 19 19 19 19 19 18 18 18 18 18 18 18 18 18 18 18 18 18 17
24 24 23 21 23 23 23 24 24 24 24 23 22 20 20 19 20 20 20 19 20 19 19 19 19 19 19 19 19 19 19 19 19 19 19 18 18 18 18 18 18 18 18 18 18 18 18 17 17
24 24 21 21 23 24 24 24 24 24 23 23 21 20 19 19 20 20 20 20 20 19 19 19 19 19 19 19 19 19 19 19 19 19 19 18 18 18 18 18 18 18 18 18 18 17 17 17 17
25 21 21 22 23 24 24 25 24 23 23 22 21 19 18 19 20 20 20 20 20 20 19 19 19 19 19 19 19 19 19 19 19 19 19 19 18 18 18 18 18 18 18 18 17 17 17 17 17
23 20 22 23 23 24 25 25 24 23 22 22 21 19 18 19 20 20 20 20 19 19 19 19 19 19 19 19 19 19 19 19 19 19 19 18 18 18 18 18 18 18 18 17 17 17 17 17 17
25 20 22 22 24 24 25 25 24 23 23 22 22 19 18 19 20 20 20 19 19 19 19 19 19 19 19 19 19 19 19 19 19 19 19 18 18 18 18 18 18 18 17 17 17 17 17 17 17
25 20 22 23 24 25 25 24 24 24 23 23 22 21 21 20 19 19 19 19 19 19 19 19 19 19 19 19 19 19 19 19 19 18 18 18 18 18 18 18 18 18 17 17 17 17 17 17 17
23 21 24 24 24 24 25 25 24 24 23 22 21 21 21 20 19 20 19 19 19 19 19 19 19 19 19 19 19 19 19 19 19 18 18 18 18 18 18 18 18 18 17 17 17 17 17 17 17
23 23 24 25 26 26 25 25 24 23 22 22 21 21 20 20 20 20 20 20 20 20 20 20 19 19 19 19 19 19 19 19 19 18 18 18 18 18 18 18 18 18 18 17 17 17 17 17 17
24 24 25 26 26 26 25 25 24 24 24 25 24 23 21 20 20 21 21 21 21 20 20 20 20 19 19 19 19 19 19 19 19 18 18 18 18 18 18 18 18 18 18 17 17 17 17 17 17
24 25 26 26 26 26 26 25 25 25 25 24 23 21 21 21 21 21 21 21 21 21 20 20 20 20 19 19 19 19 19 19 19 18 18 18 18 18 18 18 18 18 18 17 17 17 17 17 17
24 25 25 26 26 26 25 25 25 24 24 23 21 21 21 21 21 21 21 21 21 21 21 20 20 20 19 19 19 19 19 19 19 19 18 18 18 18 18 18 18 18 18 17 17 17 17 17 17
24 24 24 25 25 26 25 24 24 23 23 22 21 20 20 20 21 21 21 21 21 21 21 20 20 20 19 19 19 19 19 19 19 19 18 18 18 18 18 18 18 18 18 17 17 17 17 17 17
24 23 24 24 24 25 25 24 24 23 22 21 20 20 19 20 21 21 21 21 21 21 21 20 20 20 20 19 19 19 19 19 19 18 18 18 18 18 18 18 18 18 18 17 17 17 17 17 17
21 22 24 24 24 25 24 24 23 23 22 21 20 20 20 20 20 21 21 21 21 21 21 21 20 20 20 19 19 19 19 19 19 18 18 18 18 18 18 18 18 18 17 17 17 17 17 17 17
21 22 23 24 24 24 24 23 22 22 22 21 21 21 20 20 21 21 21 21 21 21 21 20 20 20 20 19 19 18 18 18 18 18 18 18 18 18 18 18 18 17 17 17 17 17 17 17 17
22 22 23 23 24 24 23 22 22 21 22 21 21 21 21 21 21 21 21 21 21 21 21 20 20 20 20 19 19 19 19 19 18 18 18 18 18 18 18 18 18 18 17 17 17 17 17 17 17
22 22 22 23 23 24 23 22 21 21 21 21 21 21 21 21 21 21 21 21 21 21 21 20 20 20 20 20 20 19 19 19 18 18 18 18 18 18 18 18 18 18 17 17 17 17 17 17 17
22 22 22 23 23 22 23 22 21 21 22 22 22 22 22 22 22 21 21 21 21 21 21 21 20 20 20 20 19 19 19 18 18 18 18 18 18 18 18 18 18 18 18 18 17 17 17 17 17
21 22 22 23 22 20 22 21 21 21 20 21 22 22 22 22 22 22 22 22 22 22 21 21 21 20 20 20 19 19 19 19 19 19 19 18 18 18 18 18 18 18 18 18 17 17 17 17 17
22 23 23 23 22 20 21 21 20 20 20 21 21 22 22 22 22 22 22 22 22 22 22 21 21 20 20 20 19 19 19 19 19 19 19 18 18 18 18 18 18 18 18 18 18 17 17 17 17
23 21 20 17 18 20 20 20 20 19 20 21 21 22 22 22 22 22 22 22 22 21 21 21 21 20 20 19 19 19 19 19 19 19 19 19 18 18 18 18 18 18 18 18 18 17 17 17 17
21 19 19 20 18 18 19 20 20 20 20 20 21 22 22 22 22 22 22 22 22 21 21 21 21 20 20 19 19 19 19 19 19 19 19 19 18 18 18 18 18 18 18 18 18 17 17 17 17
19 19 18 19 19 18 19 20 20 20 20 21 22 22 22 22 22 22 22 22 21 21 21 21 20 20 20 19 19 19 19 19 19 19 19 18 18 18 18 18 18 18 18 17 18 17 17 17 17
19 19 19 17 18 19 19 19 20 20 20 20 21 21 21 22 22 22 22 22 21 21 21 21 20 20 20 19 19 19 19 19 19 18 18 18 18 18 18 18 18 18 17 17 17 17 17 17 17
20 17 16 17 18 19 20 20 20 21 20 20 19 20 21 22 22 21 21 22 21 21 21 21 20 20 20 19 19 19 19 19 19 18 18 18 18 18 18 18 18 18 17 17 17 17 17 17 17
19 18 16 15 17 18 19 20 20 20 20 19 19 20 21 21 22 22 22 21 21 21 21 20 20 20 19 19 19 19 19 19 18 18 18 18 18 18 18 18 17 17 17 17 17 17 17 17 17
20 18 17 18 17 16 18 19 20 19 18 19 19 20 21 21 21 21 21 21 21 21 20 20 20 20 19 19 19 19 19 18 18 18 18 18 18 18 18 18 17 17 17 17 17 17 17 17 17

GEFSSGP_850_meantemp_192.txt.gz
Temperature
24 23 23 23 30 31 30 29 30 29 28 27 27 27 27 26 26 23 20 20 19 19 18 19 19 19 19 19 19 19 19 19 19 19 18 18 18 19 18 18 18 18 18 18 18 18 18 18 18
23 23 24 28 32 30 29 30 29 29 27 27 26 26 26 23 22 21 20 19 19 19 18 18 19 19 19 19 19 19 19 19 19 18 18 18 18 18 18 18 18 18 18 18 18 18 18 18 18
24 24 27 32 31 30 29 30 29 28 27 27 26 25 24 22 21 20 20 19 19 19 18 19 19 19 19 19 19 19 19 19 18 18 18 18 18 18 18 18 18 18 18 18 18 18 18 18 18
24 27 30 32 31 30 30 30 29 29 27 27 27 25 23 21 21 20 19 19 19 19 19 18 19 19 19 19 19 19 19 18 18 18 18 18 18 18 18 18 18 18 18 18 18 18 18 18 18
25 30 33 32 31 31 31 30 29 30 28 27 27 25 22 20 20 20 19 20 20 19 19 18 19 19 19 19 19 19 19 18 18 18 18 18 18 18 18 18 18 18 18 18 18 18 18 18 18
30 32 33 32 31 31 31 29 29 29 28 27 26 25 22 20 20 20 20 20 20 19 19 18 19 19 19 19 19 19 19 18 18 18 18 18 18 18 18 18 18 18 18 18 18 17 18 18 18
31 33 32 32 31 31 30 29 30 29 28 27 26 25 22 20 20 20 19 20 20 19 19 18 18 19 19 19 19 18 18 18 18 18 18 18 18 18 18 18 18 18 18 17 17 17 17 17 18
30 33 32 32 32 31 30 29 29 29 28 26 26 26 23 20 20 19 19 19 19 19 19 18 18 18 18 18 18 18 18 18 18 18 18 18 18 18 18 17 18 18 18 17 17 17 17 17 18
29 33 32 32 32 31 30 30 29 28 27 26 26 26 24 20 20 19 19 19 19 18 18 19 18 18 18 18 18 18 18 18 18 18 18 18 17 17 17 17 18 18 17 17 17 17 17 17 17
31 32 32 32 33 32 31 30 29 29 28 26 25 23 21 20 20 20 20 20 19 19 18 19 18 18 18 18 18 18 18 18 18 18 17 17 17 17 17 18 18 18 17 17 17 17 17 17 17
32 32 32 32 31 31 31 31 30 30 30 28 26 23 21 21 20 20 20 20 19 19 19 18 18 18 18 18 18 18 18 18 18 18 17 17 17 17 17 17 17 17 17 17 17 17 17 17 17
31 31 31 32 31 31 31 31 30 30 30 28 26 23 22 21 21 21 20 20 19 19 19 19 18 18 18 18 18 18 18 18 18 18 17 17 17 17 17 17 17 17 17 17 17 17 17 17 17
31 31 31 31 31 31 31 31 30 30 28 26 24 23 22 22 22 21 21 20 19 19 19 19 19 18 18 18 18 18 18 18 18 18 18 17 17 17 17 17 17 17 17 17 17 17 17 17 17
31 31 31 31 31 30 31 31 30 29 27 25 24 23 23 22 22 21 20 20 20 19 19 19 19 19 19 19 18 18 18 18 18 17 17 17 17 17 17 17 17 17 17 17 17 17 17 17 17
30 31 32 31 31 31 31 31 31 28 27 26 25 24 23 22 22 21 21 20 20 20 19 19 19 19 19 19 18 18 18 18 18 17 18 18 17 17 17 17 17 17 17 17 17 17 17 17 17
31 31 31 31 31 31 31 31 30 28 27 26 25 24 23 22 22 21 21 20 20 20 20 20 19 19 19 19 19 18 18 18 18 18 17 18 17 17 17 17 17 17 17 17 17 17 17 17 17
30 31 31 31 31 31 31 31 30 28 28 27 26 25 24 23 22 21 21 21 20 20 20 20 19 20 19 19 19 18 18 18 18 18 18 18 18 18 17 17 17 17 17 17 17 17 17 17 17
31 31 31 31 31 31 31 31 30 28 28 28 26 25 24 23 23 22 21 21 20 20 20 20 20 20 19 19 19 18 18 18 18 18 18 18 18 18 17 18 17 17 17 17 17 17 17 17 17
31 31 31 31 30 31 31 31 30 29 28 28 27 26 25 24 23 22 21 21 20 20 20 20 20 20 20 19 19 19 19 18 18 18 18 18 18 18 18 18 18 17 17 17 17 17 17 17 17
30 30 30 30 30 30 31 31 30 29 29 28 27 26 25 24 23 22 21 21 21 20 20 20 20 20 20 19 19 19 19 18 18 18 18 19 18 18 18 18 18 17 17 17 17 17 17 17 17
29 30 30 30 29 30 30 30 30 30 28 28 27 27 26 25 24 22 21 21 21 21 21 20 20 20 20 19 19 18 19 18 18 18 18 18 18 18 18 18 18 18 17 17 17 17 17 17 17
29 30 30 29 29 30 30 30 30 30 29 29 28 27 27 26 24 23 22 21 21 21 21 21 21 20 20 20 19 19 19 19 19 18 18 18 18 18 18 18 18 18 18 18 17 17 17 17 17
29 29 29 29 29 30 30 30 31 30 30 30 29 28 27 26 25 24 23 22 22 22 21 21 21 21 20 20 20 19 19 19 19 18 18 18 18 18 18 18 18 18 18 18 18 17 17 17 17
28 28 28 29 29 28 29 29 30 31 30 31 30 28 27 27 25 24 24 22 22 22 21 21 21 21 21 20 20 19 19 19 18 18 18 18 18 18 18 18 18 18 18 18 18 18 17 17 17
28 28 27 27 28 28 29 29 30 31 31 30 30 29 28 27 26 25 24 23 22 21 21 21 21 21 21 20 20 20 19 19 19 18 18 18 18 18 18 18 18 18 18 18 18 18 17 17 17
28 28 28 28 28 29 28 29 30 30 29 28 28 28 27 26 26 25 24 23 22 21 21 21 21 21 21 20 20 20 19 19 19 18 18 18 18 18 18 18 18 18 18 18 18 17 17 17 17
27 28 30 29 29 29 29 29 29 29 29 28 28 27 27 26 26 25 24 23 22 21 21 21 21 21 21 20 20 20 19 19 19 19 19 18 18 18 18 18 18 18 18 18 18 17 17 17 17
29 29 28 28 27 28 29 29 30 29 29 29 28 27 26 26 25 24 23 23 22 21 21 20 20 20 20 20 20 19 19 19 19 19 18 18 18 18 18 18 18 18 18 18 17 17 17 17 17
27 28 28 29 29 28 28 29 30 30 29 29 28 27 26 25 25 24 23 22 21 21 20 20 20 19 19 19 19 19 19 19 19 19 18 18 18 18 18 18 18 18 17 17 17 17 17 17 17
28 28 28 27 27 28 29 29 29 29 29 28 27 26 25 24 24 23 23 22 21 20 20 20 19 19 19 19 19 19 19 18 18 18 18 18 18 18 18 17 17 17 17 17 17 17 17 17 17

GEFSSGP_850_meantemp_198.txt.gz
Temperature
26 26 25 25 29 29 30 31 31 31 30 30 29 28 27 26 25 23 22 21 20 20 20 20 19 19 19 19 19 19 19 19 19 19 19 19 19 19 18 18 18 18 18 18 18 18 18 18 18
26 25 26 29 30 29 30 31 31 31 31 30 29 28 27 25 24 22 22 21 20 20 19 19 19 19 19 19 19 19 19 19 19 19 19 18 18 18 18 18 18 18 18 18 18 18 18 18 18
27 26 28 31 31 30 30 31 31 31 31 30 28 27 26 25 23 22 22 21 20 19 20 20 19 19 19 19 19 19 19 19 19 19 18 18 18 18 18 18 18 18 18 18 18 18 18 18 18
26 29 30 32 31 32 32 32 32 32 31 30 28 27 25 24 23 22 22 21 20 20 20 20 19 19 19 19 19 19 19 19 19 18 18 18 18 18 18 18 18 18 18 18 18 18 18 18 18
29 31 32 32 32 33 33 33 32 32 31 29 27 26 24 24 23 22 22 22 21 20 20 20 20 19 19 19 19 19 19 19 19 18 18 18 18 18 18 18 18 18 18 18 18 18 18 18 18
31 33 31 32 32 33 33 33 32 32 30 29 27 26 24 23 23 23 23 22 21 20 20 20 20 19 19 19 19 19 19 19 19 18 18 18 18 18 18 18 18 18 18 18 18 18 18 18 18
32 32 32 33 32 33 33 33 33 32 31 30 28 26 24 23 23 23 23 22 21 20 20 20 20 19 19 19 19 19 19 19 19 18 18 18 18 18 18 18 18 18 18 18 18 18 18 18 18
32 33 33 33 33 33 33 33 32 32 31 30 29 27 24 23 23 23 23 22 21 21 20 19 19 19 19 19 19 19 19 19 19 18 18 18 18 18 18 18 18 18 18 18 18 18 18 18 18
33 33 33 34 33 33 34 33 32 31 31 30 29 27 25 24 23 23 22 22 21 21 20 20 19 19 19 19 19 19 19 19 18 18 18 18 18 18 18 18 18 18 18 18 18 18 18 18 18
34 33 34 35 35 34 34 33 32 31 30 29 27 26 25 24 24 23 23 22 22 21 21 20 20 19 19 19 19 19 18 19 18 18 18 18 18 18 18 18 18 18 18 18 18 18 18 18 18
34 34 35 35 35 35 34 34 33 31 30 29 27 25 25 24 24 23 23 22 21 21 21 20 20 20 20 19 19 19 18 19 18 18 18 18 18 18 18 18 18 18 18 18 18 18 18 18 18
35 35 35 35 35 35 34 34 33 32 31 29 27 26 25 25 24 24 23 22 21 21 21 21 20 20 20 20 19 19 19 19 19 18 18 18 18 18 18 18 18 18 18 18 18 18 18 18 18
35 35 35 35 35 35 34 34 33 32 30 29 27 26 26 25 25 24 23 22 22 21 21 20 20 20 20 20 19 19 19 19 19 19 19 18 18 18 18 18 18 18 18 18 18 18 18 18 18
35 35 35 35 35 35 34 34 33 31 30 29 27 27 26 26 25 24 23 23 22 21 21 20 20 20 20 20 19 19 19 19 19 19 19 18 18 18 18 18 18 18 18 18 18 18 18 18 18
34 35 35 35 35 35 34 33 32 31 30 29 28 27 26 26 26 25 24 23 22 21 21 20 20 20 20 19 19 19 19 19 19 19 19 19 18 18 18 18 18 18 18 18 18 18 18 18 18
34 34 33 35 35 35 34 31 32 31 30 30 29 28 27 26 26 25 24 23 22 22 21 20 20 20 20 20 19 19 19 19 19 19 19 19 18 18 18 18 18 18 18 18 18 18 18 18 18
33 33 33 34 35 35 33 32 32 31 31 30 29 28 27 26 26 25 24 23 22 22 21 20 20 20 20 20 20 19 19 19 19 19 19 19 19 18 18 18 18 18 18 18 18 18 18 18 18
32 33 33 34 35 35 33 32 32 32 31 31 30 28 27 27 26 25 24 23 22 22 21 21 20 20 20 20 20 19 19 19 19 19 19 19 19 19 19 18 18 18 18 18 18 18 18 18 18
34 33 33 34 35 34 33 32 32 32 32 31 30 29 27 27 26 25 24 23 22 21 21 21 20 20 20 19 19 19 19 19 19 19 19 19 19 19 19 19 18 18 18 18 18 18 18 18 18
33 33 33 34 35 34 33 33 33 33 32 32 31 29 28 27 26 25 24 23 22 21 21 21 21 20 20 20 20 19 19 19 19 19 19 19 19 19 19 19 19 18 18 18 18 18 18 18 18
33 33 33 33 34 34 33 32 32 32 32 32 32 30 29 28 27 25 24 23 22 22 21 21 21 21 21 20 20 19 19 19 19 19 19 19 19 19 19 19 19 19 18 18 18 18 18 18 18
32 33 34 33 32 32 32 31 31 31 32 32 32 31 30 29 27 26 24 24 23 22 22 21 21 21 21 20 20 20 19 19 19 19 19 19 19 19 19 19 19 19 19 18 18 18 18 18 18
32 34 33 33 32 32 32 31 32 31 30 31 32 32 31 30 28 27 25 24 23 22 22 21 21 21 21 21 20 20 20 20 20 19 19 19 19 19 19 19 19 19 19 19 18 18 18 18 18
33 33 33 32 32 30 31 31 31 32 31 32 32 32 31 30 29 28 26 25 24 23 22 22 21 21 21 21 20 20 20 20 20 19 19 19 19 19 19 19 19 19 19 19 19 18 18 18 18
32 31 30 29 29 29 32 31 31 32 32 33 32 32 32 31 30 28 27 25 24 23 23 22 21 21 21 21 21 20 20 20 20 20 19 19 19 19 19 19 19 19 19 19 19 18 18 18 18
31 31 29 28 29 30 31 31 32 33 33 33 32 32 31 31 30 29 27 26 25 24 23 22 21 21 21 21 21 20 20 20 20 20 19 19 19 19 19 19 19 19 19 18 18 18 18 18 18
31 31 32 31 31 30 31 32 32 33 33 32 32 31 31 31 30 29 28 26 25 24 23 22 22 21 21 21 21 20 20 20 19 19 19 19 19 19 19 19 19 19 19 18 18 18 18 18 18
32 32 31 30 29 29 30 31 31 31 31 32 31 31 31 30 29 28 27 26 25 24 23 22 21 21 21 20 20 20 20 20 20 19 19 19 19 19 19 19 19 19 18 18 18 18 18 18 18
31 31 31 30 30 29 29 30 32 32 32 32 31 31 30 30 29 28 27 26 25 24 23 22 21 21 20 20 20 20 20 20 20 19 19 19 19 19 19 18 19 18 18 18 18 18 18 18 18
31 31 31 29 29 30 29 29 32 32 32 32 31 30 29 29 28 28 26 25 25 24 23 22 21 20 20 20 20 20 19 19 19 19 19 19 19 18 18 18 18 18 18 18 18 18 18 18 17